#timestamp,LO_Frequency,Hit,StdDev 
1628586015.0,286046999.0,N
1628586015.9,286046999.0,N
1628586035.8,286046998.9,N
1628586055.6,286046998.3,N
1628586075.5,286046999.2,N
1628586095.3,286046997.0,N
1628586115.1,286046999.1,N
1628586135.9,286046996.9,N
1628586155.7,286046999.3,N
1628586175.5,286046998.9,N
1628586195.4,286046999.6,N
1628586215.2,286046996.5,N
1628586235.1,286046997.2,N
1628586236.0,286046997.2,N
1628586255.8,286046997.7,N
1628586275.7,286046994.9,Y
1628586295.5,286046995.0,P
1628586315.3,286046993.5,P
1628586335.2,286046996.4,N
1628586355.0,286046992.1,Y
1628586355.9,286046992.1,P
1628586375.8,286046997.5,N
1628586395.6,286046999.6,N
1628586415.4,286046997.3,N
1628586435.3,286046997.6,N
1628586455.1,286046997.5,N
1628586475.8,286046997.1,N
1628586495.7,286046997.7,N
1628586515.5,286046997.4,N
1628586535.3,286046997.9,N
1628586555.2,286046997.9,N
1628586575.0,286046996.1,N
1628586575.9,286046996.1,N
1628586595.8,286046995.9,N
1628586615.6,286046996.4,N
1628586635.4,286046996.2,N
1628586655.3,286046994.2,Y
1628586675.1,286046999.2,P
1628586695.9,286047000.0,N
1628586715.7,286046999.7,N
1628586735.5,286047002.8,N
1628586755.4,286047004.4,N
1628586775.2,286047001.5,N
1628586795.1,286047002.6,N
1628586796.0,286047002.6,N
1628586815.8,286047002.1,N
1628586835.6,286047002.1,N
1628586855.5,286046999.7,N
1628586875.3,286047000.2,N
1628586895.2,286047001.0,N
1628586915.9,286047001.0,N
1628586935.7,286047000.4,N
1628586955.6,286046999.8,N
1628586975.4,286047001.9,N
1628586995.3,286047003.8,N
1628587015.1,286047003.6,N
1628587016.0,286047003.6,N
1628587035.8,286047003.4,N
1628587055.7,286047003.1,N
1628587075.5,286047004.6,N
1628587095.4,286047006.5,Y
1628587115.2,286047004.8,P
1628587135.0,286047004.8,P
1628587135.9,286047004.8,P
1628587155.8,286047005.1,Y
1628587175.6,286047000.1,P
1628587195.4,286047000.5,N
1628587215.3,286047000.3,N
1628587235.1,286047000.5,N
1628587255.9,286047000.3,N
1628587275.7,286046999.9,N
1628587295.5,286047000.9,N
1628587315.4,286046998.1,N
1628587335.2,286047001.0,N
1628587355.1,286047000.5,N
1628587356.0,286047000.5,N
1628587375.8,286047000.6,N
1628587395.6,286046998.1,N
1628587415.5,286046998.2,N
1628587435.3,286046999.4,N
1628587455.1,286046998.2,N
1628587475.9,286047000.8,N
1628587495.7,286047000.8,N
1628587515.6,286047000.9,N
1628587535.4,286046998.1,N
1628587555.2,286046998.3,N
1628587575.1,286047001.1,N
1628587576.0,286047001.1,N
1628587595.8,286046998.2,N
1628587615.6,286046999.0,N
1628587635.5,286046998.8,N
1628587655.3,286046999.6,N
1628587675.2,286046998.6,N
1628587695.9,286046999.2,N
1628587715.7,286046999.3,N
1628587735.6,286046999.5,N
1628587755.4,286046999.1,N
1628587775.2,286046999.2,N
1628587795.1,286046999.0,N
1628587796.0,286046999.0,N
1628587815.8,286046996.6,Y
1628587835.7,286046996.6,P
1628587855.5,286046999.1,N
1628587875.3,286046998.3,N
1628587895.2,286046998.3,N
1628587915.0,286046999.3,N
1628587915.9,286046999.3,N
1628587935.7,286046998.3,N
1628587955.6,286046997.1,Y
1628587975.4,286046998.0,P
1628587995.3,286046998.0,P
1628588015.1,286046995.4,P
1628588035.8,286046997.5,N
1628588055.7,286046997.7,N
1628588075.5,286046995.1,Y
1628588095.4,286047001.2,P
1628588115.2,286046998.4,N
1628588135.0,286047000.8,N
1628588136.0,286047000.8,N
1628588155.8,286047000.6,N
1628588175.6,286047000.1,N
1628588195.5,286047001.5,N
1628588215.3,286047011.9,Y
1628588235.1,286047001.7,P
1628588255.9,286047000.4,N
1628588275.7,286046998.1,N
1628588295.5,286046998.7,N
1628588315.4,286046996.7,N
1628588335.2,286046997.6,N
1628588355.1,286046997.8,N
1628588356.0,286046997.8,N
1628588375.8,286046997.7,N
1628588395.6,286046997.1,N
1628588415.5,286046997.2,N
1628588435.3,286046996.6,N
1628588455.1,286046997.3,N
1628588475.9,286046997.8,N
1628588495.7,286046997.8,N
1628588515.6,286046997.4,N
1628588535.4,286046997.3,N
1628588555.2,286046997.3,N
1628588575.1,286046996.7,N
1628588576.0,286046996.7,N
1628588595.8,286046999.5,N
1628588615.6,286046997.0,N
1628588635.5,286046997.8,N
1628588655.3,286046997.5,N
1628588675.2,286046997.5,N
1628588695.9,286046997.1,N
1628588715.7,286046999.5,N
1628588735.6,286046999.6,N
1628588755.4,286046997.3,N
1628588775.2,286046999.4,N
1628588795.1,286046999.6,N
1628588796.0,286046999.6,N
1628588815.8,286046998.1,N
1628588835.7,286046999.4,N
1628588855.5,286046998.1,N
1628588875.3,286046998.6,N
1628588895.2,286047000.4,N
1628588915.0,286047004.0,Y
1628588915.9,286047004.0,P
1628588935.7,286047009.2,P
1628588955.6,286047006.3,N
1628588975.4,286047004.5,N
1628588995.3,286047006.8,N
1628589015.1,286047007.4,N
1628589016.0,286047007.4,N
1628589035.8,286047007.3,N
1628589055.7,286047007.0,N
1628589075.5,286047004.8,N
1628589095.3,286047007.2,N
1628589115.2,286047007.2,N
1628589135.0,286047007.1,N
1628589135.9,286047007.1,N
1628589155.8,286047007.2,N
1628589175.6,286047006.3,N
1628589195.4,286047007.0,N
1628589215.3,286047006.7,N
1628589235.1,286047007.0,Y
1628589255.9,286046998.4,P
1628589275.7,286046998.8,N
1628589295.5,286046999.1,N
1628589315.4,286046999.5,N
1628589335.2,286046998.9,N
1628589355.0,286046998.4,N
1628589355.9,286046998.4,N
1628589375.8,286046998.9,N
1628589395.6,286046999.0,N
1628589415.4,286046999.6,N
1628589435.3,286047011.9,Y
1628589455.1,286046995.3,P
1628589475.9,286046995.3,N
1628589495.7,286046995.7,N
1628589515.5,286046995.1,N
1628589535.4,286046997.4,N
1628589555.2,286046997.7,N
1628589575.1,286046995.2,Y
1628589576.0,286046995.2,P
1628589595.8,286047001.1,N
